STARLINK-2250, 48593

Orbit data source: Space-Track

STARLINK-2250, 48593 is a payload satellite owned by SpaceX/Seattle (US) in LEO that was launched on Sat, 15 May 2021 UTC via an FALCON 9 launch vehicle from the Air Force Eastern Test Range (AFETR). Payload-class satellites include a variety of spacecraft equipped with specific instruments for various scientific and technological missions. These include communications satellites like Starlink; space stations such as the ISS; scientific satellites like the Hubble; Earth observation satellites from companies like Planet Labs, Umbra, and HawkEye 360; GPS; miniature CubeSats for education and research; and military/defense satellites.

Loading next visibility...
Identifier
48593, 2021-041AS
Orbit
LEO
Country
Flag of USUS
Related business
Manufacturer
SpaceX/Seattle
Mission
Operational Commercial Communications
Bus & Motor
STARLINK, Unknown motor
Mass
260 kg wet, ~248 kg dry
Launch date (UTC)
2021-05-15 (5 years ago)
Launch vehicle
FALCON 9
Launch site
Air Force Eastern Test Range (AFETR)
Object type
Payload
Rocket body
Debris
Shape & HBR
Box + 1 Pan, 10.1 m
Radar Cross Section
13.562 m², Large (>1 m²)

Expand to show TLE details & history
Last TLE update: 2 days ago

TLE from 2 days ago
0 STARLINK-2250
1 48593U 21041AS  26171.28320385  .00000849  00000-0  39107-4 0  9990
2 48593  53.1597  22.6220 0001126 100.8074 259.3054 15.31702572280804
Epoch: 2026-06-20T06:47Z
TLE epoch observation values (Epoch: 2026-06-20T06:47:48.812Z)
Latitude
-0.00005°
Longitude
12.16853°
Altitude
471.776 km
Speed
7.631 km/s
True Right ascension
01h 30m 29s
True Declination
0° 00' 00"
Sunlit
Object was in daylight at epoch
Visualization orbit readout
Latitude
Unknown
Longitude
Unknown
Altitude
Unknown
Speed
Unknown
Apparent Right ascension
Unknown
Apparent Declination
Unknown
Sunlit
N/A
Visualization observer readout
Local Sidereal Time
21:36:33
Azimuth
Unknown
Elevation
Unknown
Doppler factor
Unknown
Orbital elements
Apogee altitude
471.76 km
Perigee altitude
470.218 km
Semi-major axis
6,849.126 km
Eccentricity
0.00011
Inclination
53.1597°
RAAN
22.622°
Arg. of periapsis
100.8074°
True anomaly
259.29272°
Mean anomaly
259.3054°
Eccentric anomaly
259.29906°
Mean motion
3.82904 °/min
Orbital period
94.02 mins
BSTAR
0.000039107
Loading maneuver chart data...
Computing Atmospheric mass density...

Documentation

Showing up to 5 results
|